Dewpoint
16 15 18 18 18 15 14 16 16 24 33 42 47 45 49 50 53 53 54 54 55 56 60 62 64 65 66 69 69 70 68 71
12 14 14 15 16 12 19 23 21 27 35 33 44 46 49 51 51 54 56 57 57 58 58 61 61 64 66 70 70 69 69 70
14 14 15 14 14 16 18 23 22 25 27 44 48 48 48 49 51 53 57 61 61 61 61 61 64 66 66 67 68 65 67 71
19 14 13 14 14 14 14 25 30 35 27 39 48 46 47 46 51 58 62 60 61 62 66 65 67 67 67 68 66 65 66 68
15 10 13 11 14 14 16 24 33 24 25 40 46 51 49 51 58 62 62 61 61 62 66 68 68 69 69 69 67 66 70 67
17 17 16 17 16 19 12 17 22 26 27 40 48 50 53 58 60 61 62 62 61 61 64 68 69 70 71 70 70 70 68 66
18 17 13 14 15 17 18 16 17 18 30 32 49 52 54 57 60 62 62 61 61 62 65 68 69 69 70 68 68 67 67 65
18 13 11 10 14 17 19 22 26 26 28 35 48 55 58 58 61 62 62 62 62 63 64 65 66 67 66 67 67 67 67 67
19 15 17 16 17 19 19 23 20 25 25 43 49 55 57 59 61 63 62 62 63 63 63 64 65 65 66 69 70 69 71 74
18 23 15 12 19 18 18 18 25 29 35 45 46 54 57 58 59 62 63 64 65 63 64 67 68 70 72 72 73 74 74 73
24 18 19 15 22 24 25 23 27 28 31 40 47 50 55 57 59 63 64 65 66 66 68 70 71 73 72 71 71 69 67 67
27 20 16 19 25 32 28 21 32 32 34 43 51 48 50 56 59 63 65 66 67 68 69 69 71 71 70 68 67 66 66 66
29 24 23 29 37 35 24 24 34 36 37 46 49 50 53 56 60 64 65 66 67 68 68 69 69 68 68 66 66 66 67 66
32 30 27 42 41 33 41 43 43 44 42 48 53 57 58 61 63 64 64 65 66 67 67 67 66 66 64 64 65 67 66 65
35 35 46 48 47 47 45 47 50 49 48 53 56 59 61 62 62 63 64 63 63 64 62 61 62 61 61 64 66 66 65 65
44 44 44 44 45 45 48 49 51 52 54 55 58 60 62 62 61 61 61 61 60 60 60 61 61 63 62 64 65 64 64 65
46 45 46 45 49 51 52 54 54 56 57 59 60 61 61 61 62 61 61 59 59 60 61 61 63 62 62 63 64 63 64 63
42 46 49 47 49 51 52 53 55 57 58 59 60 60 61 61 62 61 60 60 60 61 61 61 61 61 63 63 63 62 61 58
48 48 47 48 48 50 53 54 55 56 58 57 59 59 60 60 60 58 60 60 60 60 59 61 62 61 61 63 61 61 59 59
Lifted_Index
3 3 3 3 2 1 1 0 -0 -0 -0 -0 -0 -0 -0 -1 -1 -1 -1 -1 -2 -2 -2 -2 -2 -2 -3 -4 -4 -4 -5 -5
4 3 3 3 2 2 1 0 -0 -0 -0 -0 -0 -1 -1 -1 -1 -2 -2 -2 -2 -2 -2 -2 -2 -2 -3 -4 -4 -4 -5 -5
4 4 3 3 3 2 1 0 -0 -0 -0 -0 -1 -1 -1 -1 -1 -2 -3 -3 -2 -2 -2 -2 -2 -2 -3 -3 -3 -3 -3 -4
3 4 4 3 3 2 1 1 0 0 1 0 -0 -1 -1 -1 -2 -3 -4 -3 -2 -2 -2 -2 -3 -3 -3 -3 -3 -3 -3 -3
3 3 3 3 3 2 1 1 1 1 1 0 -0 -1 -1 -2 -3 -4 -4 -3 -2 -2 -3 -3 -3 -4 -4 -4 -3 -3 -3 -2
2 2 3 3 3 2 2 1 1 1 1 0 -1 -2 -2 -3 -5 -5 -4 -3 -3 -3 -3 -4 -4 -4 -4 -4 -4 -3 -3 -2
3 2 2 2 2 2 2 1 1 1 1 0 -1 -2 -3 -4 -5 -5 -5 -4 -3 -3 -3 -3 -4 -4 -4 -4 -3 -3 -2 -1
2 2 1 1 1 2 2 1 1 1 1 0 -1 -3 -4 -4 -5 -5 -5 -5 -4 -4 -3 -3 -3 -3 -3 -3 -3 -3 -3 -3
2 1 1 1 1 1 1 1 1 1 1 0 -1 -3 -4 -4 -5 -6 -6 -5 -5 -4 -4 -3 -3 -4 -4 -4 -5 -5 -5 -5
1 1 1 1 1 1 1 1 2 1 1 0 -1 -2 -3 -4 -5 -6 -6 -6 -5 -5 -4 -4 -5 -5 -5 -6 -6 -6 -6 -6
-0 -0 0 1 1 1 1 1 2 1 1 -0 -1 -2 -3 -4 -4 -5 -6 -6 -6 -6 -5 -6 -6 -6 -6 -6 -6 -6 -6 -6
-0 -0 -0 0 1 1 1 1 1 1 1 0 -1 -2 -2 -3 -4 -5 -6 -6 -6 -6 -6 -6 -6 -6 -6 -6 -6 -6 -5 -5
0 -0 -0 0 0 0 0 1 1 1 2 1 -0 -2 -2 -3 -4 -5 -6 -7 -7 -7 -7 -6 -6 -6 -6 -5 -5 -4 -4 -3
0 0 0 1 1 0 0 1 1 1 2 1 -0 -2 -2 -3 -4 -5 -6 -7 -7 -7 -6 -6 -5 -5 -4 -4 -3 -2 -2 -2
1 1 1 1 1 1 1 0 0 1 1 -0 -1 -2 -3 -4 -4 -5 -6 -6 -6 -6 -5 -4 -3 -3 -2 -2 -1 -1 -1 -1
1 1 1 1 1 1 1 0 -0 -0 -1 -2 -2 -3 -4 -4 -5 -5 -5 -5 -5 -4 -4 -3 -2 -1 -1 -1 -1 -0 -0 -0
1 1 1 1 1 1 -0 -1 -1 -1 -2 -3 -3 -4 -4 -4 -4 -4 -4 -4 -3 -3 -2 -1 -1 -1 -1 -1 -0 0 0 0
1 1 1 1 1 -0 -1 -1 -2 -2 -2 -3 -3 -3 -3 -4 -3 -3 -3 -2 -2 -2 -1 -1 -1 -1 -1 -0 0 1 1 2
1 1 1 1 0 -0 -1 -2 -2 -2 -3 -3 -3 -3 -3 -3 -2 -2 -1 -1 -1 -1 -1 -1 -1 -1 -1 -0 0 1 2 2